EUTELSAT 117 WEST A

Last updated on Sun Jun 21 2026 00:03:05 GMT+0000 (Coordinated Universal Time)

1 39122U 13012A 26171.36572507 -.00000017 00000+0 00000+0 0 9993 2 39122 0.0223 39.9608 0002809 49.3889 194.0807 1.00272134 48462
UTC large
Height (km)
Speed (km/s)
/
Latitude / Longitude
Inclination (degrees)
Orbital Period (minutes)
Azimuth
Elevation
Range (km)
Doppler Factor

Next 0 passes for location: London (51.5072 / 0.1276)

No passes found over London.
EUTELSAT 117 WEST A